Time,TemperatureF,DewpointF,PressureIn,WindDirection,WindDirectionDegrees,WindSpeedMPH,WindSpeedGustMPH,Humidity,HourlyPrecipIn,Conditions,Clouds,dailyrainin,SoftwareType,DateUTC
2013-03-05 00:00:00,38.4,30.5,29.95,NE,45,0.0,6.2,73,0.00,,,0.00,WUHU216HW,2013-03-05 08:00:00,
2013-03-05 00:05:00,38.4,30.5,29.95,ESE,113,3.1,6.2,73,0.00,,,0.00,WUHU216HW,2013-03-05 08:05:00,
2013-03-05 00:10:00,38.4,30.5,29.95,SSE,158,2.4,3.1,73,0.00,,,0.00,WUHU216HW,2013-03-05 08:10:00,
2013-03-05 00:15:00,38.4,30.5,29.94,ENE,71,2.8,3.1,73,0.00,,,0.00,WUHU216HW,2013-03-05 08:15:00,
2013-03-05 00:20:00,38.4,30.5,29.94,ENE,68,0.0,3.5,73,0.00,,,0.00,WUHU216HW,2013-03-05 08:20:00,
2013-03-05 00:25:00,38.3,30.0,29.94,East,90,2.4,3.5,72,0.00,,,0.00,WUHU216HW,2013-03-05 08:25:00,
2013-03-05 00:30:00,38.4,30.2,29.94,NE,45,4.9,4.9,72,0.00,,,0.00,WUHU216HW,2013-03-05 08:30:00,
2013-03-05 00:35:00,38.3,30.0,29.94,SSE,158,2.4,4.9,72,0.00,,,0.00,WUHU216HW,2013-03-05 08:35:00,
2013-03-05 00:40:00,38.3,30.0,29.94,South,180,3.5,3.5,72,0.00,,,0.00,WUHU216HW,2013-03-05 08:40:00,
2013-03-05 00:45:00,38.1,29.8,29.94,NE,45,3.5,3.5,72,0.00,,,0.00,WUHU216HW,2013-03-05 08:45:00,
2013-03-05 00:50:00,38.1,29.8,29.94,ENE,68,1.5,3.5,72,0.00,,,0.00,WUHU216HW,2013-03-05 08:50:00,
2013-03-05 00:55:00,38.1,29.8,29.94,NE,45,4.9,4.9,72,0.00,,,0.00,WUHU216HW,2013-03-05 08:55:00,
2013-03-05 01:00:00,38.1,29.8,29.94,NE,45,4.0,4.9,72,0.00,,,0.00,WUHU216HW,2013-03-05 09:00:00,
2013-03-05 01:05:00,38.1,29.8,29.94,ESE,113,2.6,4.0,72,0.00,,,0.00,WUHU216HW,2013-03-05 09:05:00,
2013-03-05 01:10:00,38.3,30.0,29.94,NE,45,4.2,4.2,72,0.00,,,0.00,WUHU216HW,2013-03-05 09:10:00,
2013-03-05 01:15:00,38.1,29.8,29.93,NE,45,3.3,4.2,72,0.00,,,0.00,WUHU216HW,2013-03-05 09:15:00,
2013-03-05 01:20:00,38.1,29.8,29.94,NE,45,2.9,3.3,72,0.00,,,0.00,WUHU216HW,2013-03-05 09:20:00,
2013-03-05 01:25:00,38.1,29.8,29.93,ENE,68,1.1,4.4,72,0.00,,,0.00,WUHU216HW,2013-03-05 09:25:00,
2013-03-05 01:30:00,38.1,29.5,29.94,NNE,23,3.8,4.4,71,0.00,,,0.00,WUHU216HW,2013-03-05 09:30:00,
2013-03-05 01:35:00,38.1,29.8,29.93,NE,45,6.2,6.2,72,0.00,,,0.00,WUHU216HW,2013-03-05 09:35:00,
2013-03-05 01:40:00,38.1,29.8,29.93,NE,45,6.4,6.4,72,0.00,,,0.00,WUHU216HW,2013-03-05 09:40:00,
2013-03-05 01:45:00,38.1,29.8,29.92,NE,48,3.3,6.4,72,0.00,,,0.00,WUHU216HW,2013-03-05 09:45:00,
2013-03-05 01:50:00,38.1,29.8,29.92,SSE,158,0.0,4.4,72,0.00,,,0.00,WUHU216HW,2013-03-05 09:50:00,
2013-03-05 01:55:00,38.1,29.8,29.92,NE,45,1.5,4.2,72,0.00,,,0.00,WUHU216HW,2013-03-05 09:55:00,
2013-03-05 02:00:00,38.1,29.8,29.92,ENE,68,5.1,5.1,72,0.00,,,0.00,WUHU216HW,2013-03-05 10:00:00,
2013-03-05 02:05:00,38.1,29.8,29.92,NNE,23,5.1,5.1,72,0.00,,,0.00,WUHU216HW,2013-03-05 10:05:00,
2013-03-05 02:10:00,38.1,29.8,29.92,NE,45,3.1,5.1,72,0.00,,,0.00,WUHU216HW,2013-03-05 10:10:00,
2013-03-05 02:15:00,38.1,29.8,29.92,NE,45,2.6,5.1,72,0.00,,,0.00,WUHU216HW,2013-03-05 10:15:00,
2013-03-05 02:20:00,38.1,29.8,29.92,NE,45,4.9,6.0,72,0.00,,,0.00,WUHU216HW,2013-03-05 10:20:00,
2013-03-05 02:25:00,38.1,29.5,29.92,North,0,0.0,6.0,71,0.00,,,0.00,WUHU216HW,2013-03-05 10:25:00,
2013-03-05 02:30:00,38.1,29.5,29.92,NE,45,5.5,5.5,71,0.00,,,0.00,WUHU216HW,2013-03-05 10:30:00,
2013-03-05 02:36:00,38.3,29.7,29.92,SSE,158,0.6,5.5,71,0.00,,,0.00,WUHU216HW,2013-03-05 10:36:00,
2013-03-05 02:41:00,38.1,29.5,29.92,ENE,68,2.0,5.5,71,0.00,,,0.00,WUHU216HW,2013-03-05 10:41:00,
2013-03-05 02:46:00,38.3,30.0,29.92,NE,45,2.7,3.8,72,0.00,,,0.00,WUHU216HW,2013-03-05 10:46:00,
2013-03-05 02:51:00,38.3,29.7,29.91,NNE,23,3.8,3.8,71,0.00,,,0.00,WUHU216HW,2013-03-05 10:51:00,
2013-03-05 02:56:00,38.4,29.8,29.91,NE,45,2.4,3.8,71,0.00,,,0.00,WUHU216HW,2013-03-05 10:56:00,
2013-03-05 03:01:00,38.4,29.8,29.91,NE,45,4.9,5.3,71,0.00,,,0.00,WUHU216HW,2013-03-05 11:01:00,
2013-03-05 03:06:00,38.4,29.8,29.90,NE,45,2.4,5.3,71,0.00,,,0.00,WUHU216HW,2013-03-05 11:06:00,
2013-03-05 03:11:00,38.4,29.8,29.90,NE,45,2.6,4.9,71,0.00,,,0.00,WUHU216HW,2013-03-05 11:11:00,
2013-03-05 03:16:00,38.4,29.8,29.90,NE,45,5.1,5.1,71,0.00,,,0.00,WUHU216HW,2013-03-05 11:16:00,
2013-03-05 03:21:00,38.4,29.8,29.90,NNE,23,4.9,5.5,71,0.00,,,0.00,WUHU216HW,2013-03-05 11:21:00,
2013-03-05 03:26:00,38.4,29.8,29.89,ENE,68,0.0,5.5,71,0.00,,,0.00,WUHU216HW,2013-03-05 11:26:00,
2013-03-05 03:31:00,38.4,29.8,29.89,NE,45,3.8,4.9,71,0.00,,,0.00,WUHU216HW,2013-03-05 11:31:00,
2013-03-05 03:36:00,38.3,29.7,29.89,NE,45,2.0,3.8,71,0.00,,,0.00,WUHU216HW,2013-03-05 11:36:00,
2013-03-05 03:41:00,38.3,29.7,29.89,SE,135,0.0,4.4,71,0.00,,,0.00,WUHU216HW,2013-03-05 11:41:00,
2013-03-05 03:46:00,38.3,29.7,29.89,NE,55,3.3,5.1,71,0.00,,,0.00,WUHU216HW,2013-03-05 11:46:00,
2013-03-05 03:51:00,38.3,29.7,29.89,ENE,68,2.2,5.1,71,0.00,,,0.00,WUHU216HW,2013-03-05 11:51:00,
2013-03-05 03:56:00,38.3,29.7,29.88,NE,45,3.5,57.9,71,0.00,,,0.00,WUHU216HW,2013-03-05 11:56:00,
2013-03-05 04:01:00,38.3,29.7,29.88,ENE,68,1.3,57.9,71,0.00,,,0.00,WUHU216HW,2013-03-05 12:01:00,
2013-03-05 04:06:00,38.3,29.7,29.88,NE,45,1.3,4.2,71,0.00,,,0.00,WUHU216HW,2013-03-05 12:06:00,
2013-03-05 04:11:00,38.3,29.7,29.88,East,90,0.0,3.8,71,0.00,,,0.00,WUHU216HW,2013-03-05 12:11:00,
2013-03-05 04:16:00,38.1,29.5,29.88,NE,40,5.8,8.9,71,0.00,,,0.00,WUHU216HW,2013-03-05 12:16:00,
2013-03-05 04:21:00,38.1,29.5,29.88,NE,45,3.5,8.9,71,0.00,,,0.00,WUHU216HW,2013-03-05 12:21:00,
2013-03-05 04:26:00,38.1,29.5,29.88,NE,45,4.6,6.0,71,0.00,,,0.00,WUHU216HW,2013-03-05 12:26:00,
2013-03-05 04:31:00,38.3,29.7,29.88,ENE,68,7.3,7.3,71,0.00,,,0.00,WUHU216HW,2013-03-05 12:31:00,
2013-03-05 04:36:00,38.4,29.8,29.88,NE,45,6.0,7.3,71,0.00,,,0.00,WUHU216HW,2013-03-05 12:36:00,
2013-03-05 04:41:00,38.4,29.8,29.87,NNE,23,4.6,7.3,71,0.00,,,0.00,WUHU216HW,2013-03-05 12:41:00,
2013-03-05 04:46:00,38.8,30.2,29.88,NE,35,1.9,4.6,71,0.00,,,0.00,WUHU216HW,2013-03-05 12:46:00,
2013-03-05 04:51:00,38.8,29.8,29.87,NNE,23,1.3,4.6,70,0.00,,,0.00,WUHU216HW,2013-03-05 12:51:00,
2013-03-05 04:56:00,38.8,29.8,29.87,NNE,23,3.3,5.5,70,0.00,,,0.00,WUHU216HW,2013-03-05 12:56:00,
2013-03-05 05:01:00,39.0,30.0,29.87,NNE,23,1.3,5.5,70,0.00,,,0.00,WUHU216HW,2013-03-05 13:01:00,
2013-03-05 05:06:00,39.0,30.0,29.87,SSE,158,0.0,3.8,70,0.00,,,0.00,WUHU216HW,2013-03-05 13:06:00,
2013-03-05 05:11:00,39.0,29.6,29.87,NE,45,3.3,3.5,69,0.00,,,0.00,WUHU216HW,2013-03-05 13:11:00,
2013-03-05 05:16:00,39.2,29.8,29.87,ENE,65,2.3,4.9,69,0.00,,,0.00,WUHU216HW,2013-03-05 13:16:00,
2013-03-05 05:21:00,39.3,30.0,29.86,East,90,2.4,4.9,69,0.00,,,0.00,WUHU216HW,2013-03-05 13:21:00,
2013-03-05 05:26:00,39.3,30.0,29.86,NE,45,5.5,5.5,69,0.00,,,0.00,WUHU216HW,2013-03-05 13:26:00,
2013-03-05 05:31:00,39.5,30.1,29.86,NNE,23,2.0,5.5,69,0.00,,,0.00,WUHU216HW,2013-03-05 13:31:00,
2013-03-05 05:36:00,39.5,30.1,29.86,NNW,338,4.0,4.0,69,0.00,,,0.00,WUHU216HW,2013-03-05 13:36:00,
2013-03-05 05:41:00,39.7,30.3,29.86,NNE,23,10.2,10.2,69,0.00,,,0.00,WUHU216HW,2013-03-05 13:41:00,
2013-03-05 05:46:00,39.7,29.9,29.86,NE,38,4.2,10.2,68,0.00,,,0.00,WUHU216HW,2013-03-05 13:46:00,
2013-03-05 05:51:00,39.7,29.9,29.86,NNE,23,2.0,5.8,68,0.00,,,0.00,WUHU216HW,2013-03-05 13:51:00,
2013-03-05 05:56:00,39.7,29.9,29.86,ENE,68,3.8,6.4,68,0.00,,,0.00,WUHU216HW,2013-03-05 13:56:00,
2013-03-05 06:01:00,39.7,29.9,29.85,ENE,68,5.8,6.4,68,0.00,,,0.00,WUHU216HW,2013-03-05 14:01:00,
2013-03-05 06:06:00,39.7,29.9,29.85,NNE,23,3.3,8.2,68,0.00,,,0.00,WUHU216HW,2013-03-05 14:06:00,
2013-03-05 06:11:00,39.5,29.8,29.85,NNE,23,6.0,8.2,68,0.00,,,0.00,WUHU216HW,2013-03-05 14:11:00,
2013-03-05 06:16:00,39.7,29.9,29.85,NE,45,6.0,6.0,68,0.00,,,0.00,WUHU216HW,2013-03-05 14:16:00,
2013-03-05 06:21:00,39.7,29.6,29.85,ENE,68,4.4,7.8,67,0.00,,,0.00,WUHU216HW,2013-03-05 14:21:00,
2013-03-05 06:26:00,39.7,29.9,29.84,NNE,23,2.0,7.8,68,0.00,,,0.00,WUHU216HW,2013-03-05 14:26:00,
2013-03-05 06:31:00,39.7,29.6,29.84,NE,38,3.8,5.3,67,0.00,,,0.00,WUHU216HW,2013-03-05 14:31:00,
2013-03-05 06:36:00,39.9,29.7,29.84,ENE,68,3.5,5.3,67,0.00,,,0.00,WUHU216HW,2013-03-05 14:36:00,
2013-03-05 06:41:00,39.9,29.7,29.84,NNE,23,4.4,5.3,67,0.00,,,0.00,WUHU216HW,2013-03-05 14:41:00,
2013-03-05 06:46:00,39.9,29.7,29.84,ENE,68,8.9,8.9,67,0.00,,,0.00,WUHU216HW,2013-03-05 14:46:00,
2013-03-05 06:51:00,39.9,29.7,29.84,NE,45,2.9,8.9,67,0.00,,,0.00,WUHU216HW,2013-03-05 14:51:00,
2013-03-05 06:56:00,39.9,29.7,29.84,NE,45,4.6,8.9,67,0.00,,,0.00,WUHU216HW,2013-03-05 14:56:00,
2013-03-05 07:01:00,40.1,29.9,29.84,NE,45,4.4,7.3,67,0.00,,,0.00,WUHU216HW,2013-03-05 15:01:00,
2013-03-05 07:06:00,40.2,29.7,29.84,ENE,68,3.8,7.3,66,0.00,,,0.00,WUHU216HW,2013-03-05 15:06:00,
2013-03-05 07:11:00,40.2,29.7,29.84,NE,45,2.0,4.4,66,0.00,,,0.00,WUHU216HW,2013-03-05 15:11:00,
2013-03-05 07:16:00,40.4,29.9,29.84,NNE,32,6.1,6.9,66,0.00,,,0.00,WUHU216HW,2013-03-05 15:16:00,
2013-03-05 07:21:00,40.6,30.1,29.84,North,0,1.1,6.9,66,0.00,,,0.00,WUHU216HW,2013-03-05 15:21:00,
2013-03-05 07:26:00,40.6,30.1,29.84,NE,45,4.4,5.3,66,0.00,,,0.00,WUHU216HW,2013-03-05 15:26:00,
2013-03-05 07:31:00,40.8,30.3,29.84,NNE,23,4.6,6.2,66,0.00,,,0.00,WUHU216HW,2013-03-05 15:31:00,
2013-03-05 07:36:00,40.8,30.3,29.84,SSE,158,2.6,6.2,66,0.00,,,0.00,WUHU216HW,2013-03-05 15:36:00,
2013-03-05 07:41:00,40.8,30.3,29.84,NNE,23,6.0,7.3,66,0.00,,,0.00,WUHU216HW,2013-03-05 15:41:00,
2013-03-05 07:46:00,40.8,30.3,29.84,NNE,23,2.3,7.3,66,0.00,,,0.00,WUHU216HW,2013-03-05 15:46:00,
2013-03-05 07:51:00,41.0,30.4,29.83,NE,45,5.3,5.3,66,0.00,,,0.00,WUHU216HW,2013-03-05 15:51:00,
2013-03-05 07:56:00,41.1,30.2,29.83,ENE,68,3.5,5.3,65,0.00,,,0.00,WUHU216HW,2013-03-05 15:56:00,
2013-03-05 08:01:00,41.1,30.2,29.83,NE,45,6.9,7.8,65,0.00,,,0.00,WUHU216HW,2013-03-05 16:01:00,
2013-03-05 08:06:00,41.3,30.4,29.82,NNE,23,5.1,7.8,65,0.00,,,0.00,WUHU216HW,2013-03-05 16:06:00,
2013-03-05 08:11:00,41.5,30.6,29.83,NE,45,3.3,6.0,65,0.00,,,0.00,WUHU216HW,2013-03-05 16:11:00,
2013-03-05 08:16:00,41.5,30.6,29.83,NNW,338,2.9,4.0,65,0.00,,,0.00,WUHU216HW,2013-03-05 16:16:00,
2013-03-05 08:21:00,41.7,30.7,29.83,NE,45,0.0,3.8,65,0.00,,,0.00,WUHU216HW,2013-03-05 16:21:00,
2013-03-05 08:26:00,41.7,30.9,29.83,NE,45,4.9,5.1,65,0.00,,,0.00,WUHU216HW,2013-03-05 16:26:00,
2013-03-05 08:31:00,41.9,30.5,29.83,NE,37,6.8,8.5,64,0.00,,,0.00,WUHU216HW,2013-03-05 16:31:00,
2013-03-05 08:36:00,42.0,31.1,29.83,NE,45,5.1,8.5,65,0.00,,,0.00,WUHU216HW,2013-03-05 16:36:00,
2013-03-05 08:41:00,42.2,31.2,29.83,NNE,23,7.1,7.1,65,0.00,,,0.00,WUHU216HW,2013-03-05 16:41:00,
2013-03-05 08:46:00,42.4,31.0,29.83,SE,130,3.5,7.1,64,0.00,,,0.00,WUHU216HW,2013-03-05 16:46:00,
2013-03-05 08:51:00,42.6,31.2,29.84,ENE,68,5.1,5.1,64,0.00,,,0.00,WUHU216HW,2013-03-05 16:51:00,
2013-03-05 08:56:00,42.6,31.2,29.84,NE,45,2.0,5.1,64,0.00,,,0.00,WUHU216HW,2013-03-05 16:56:00,
2013-03-05 09:01:00,42.9,31.5,29.84,NNE,33,2.7,3.8,64,0.00,,,0.00,WUHU216HW,2013-03-05 17:01:00,
2013-03-05 09:06:00,42.9,31.5,29.84,NE,45,4.9,4.9,64,0.00,,,0.00,WUHU216HW,2013-03-05 17:06:00,
2013-03-05 09:11:00,42.9,31.1,29.84,NE,35,2.0,4.9,63,0.00,,,0.00,WUHU216HW,2013-03-05 17:11:00,
2013-03-05 09:16:00,43.3,31.9,29.84,NE,50,3.3,5.1,64,0.00,,,0.00,WUHU216HW,2013-03-05 17:16:00,
2013-03-05 09:21:00,43.5,31.7,29.84,NE,45,1.5,5.1,63,0.00,,,0.00,WUHU216HW,2013-03-05 17:21:00,
2013-03-05 09:26:00,43.7,31.8,29.84,NE,45,2.4,3.8,63,0.00,,,0.00,WUHU216HW,2013-03-05 17:26:00,
2013-03-05 09:31:00,43.8,32.4,29.84,NNE,23,3.3,3.8,64,0.00,,,0.00,WUHU216HW,2013-03-05 17:31:00,
2013-03-05 09:36:00,43.8,32.0,29.84,ENE,68,4.0,4.0,63,0.00,,,0.00,WUHU216HW,2013-03-05 17:36:00,
2013-03-05 09:41:00,44.4,32.2,29.84,North,0,3.3,5.1,62,0.00,,,0.00,WUHU216HW,2013-03-05 17:41:00,
2013-03-05 09:46:00,44.6,32.3,29.84,NNE,23,4.4,5.1,62,0.00,,,0.00,WUHU216HW,2013-03-05 17:46:00,
2013-03-05 09:51:00,44.7,32.5,29.84,ENE,68,1.5,5.5,62,0.00,,,0.00,WUHU216HW,2013-03-05 17:51:00,
2013-03-05 09:56:00,44.9,32.3,29.84,NE,52,2.5,5.5,61,0.00,,,0.00,WUHU216HW,2013-03-05 17:56:00,
2013-03-05 10:01:00,45.1,32.5,29.84,NNE,23,2.0,4.2,61,0.00,,,0.00,WUHU216HW,2013-03-05 18:01:00,
2013-03-05 10:06:00,45.3,32.6,29.84,NE,45,1.5,2.0,61,0.00,,,0.00,WUHU216HW,2013-03-05 18:06:00,
2013-03-05 10:11:00,45.5,32.8,29.84,NE,45,3.5,3.5,61,0.00,,,0.00,WUHU216HW,2013-03-05 18:11:00,
2013-03-05 10:16:00,45.6,32.6,29.85,ENE,68,3.1,3.5,60,0.00,,,0.00,WUHU216HW,2013-03-05 18:16:00,
2013-03-05 10:21:00,46.0,32.9,29.84,NE,45,2.4,3.5,60,0.00,,,0.00,WUHU216HW,2013-03-05 18:21:00,
2013-03-05 10:26:00,46.2,33.0,29.83,ENE,68,5.1,5.1,60,0.00,,,0.00,WUHU216HW,2013-03-05 18:26:00,
2013-03-05 10:31:00,46.4,32.8,29.83,ENE,68,1.7,5.1,59,0.00,,,0.00,WUHU216HW,2013-03-05 18:31:00,
2013-03-05 10:36:00,46.5,32.9,29.83,North,0,0.0,5.1,59,0.00,,,0.00,WUHU216HW,2013-03-05 18:36:00,
2013-03-05 10:41:00,46.7,33.1,29.83,SE,125,2.3,3.5,59,0.00,,,0.00,WUHU216HW,2013-03-05 18:41:00,
2013-03-05 10:46:00,46.9,33.3,29.83,NNE,23,3.2,4.0,59,0.00,,,0.00,WUHU216HW,2013-03-05 18:46:00,
2013-03-05 10:51:00,47.1,33.5,29.83,NE,45,1.5,4.0,59,0.00,,,0.00,WUHU216HW,2013-03-05 18:51:00,
2013-03-05 10:56:00,47.4,33.8,29.82,NNE,23,4.0,4.0,59,0.00,,,0.00,WUHU216HW,2013-03-05 18:56:00,
2013-03-05 11:01:00,47.8,33.7,29.83,NNE,23,6.0,6.0,58,0.00,,,0.00,WUHU216HW,2013-03-05 19:01:00,
2013-03-05 11:06:00,48.0,33.4,29.82,NE,45,3.8,6.0,57,0.00,,,0.00,WUHU216HW,2013-03-05 19:06:00,
2013-03-05 11:11:00,48.0,33.9,29.81,NE,51,3.3,6.0,58,0.00,,,0.00,WUHU216HW,2013-03-05 19:11:00,
2013-03-05 11:16:00,48.3,33.8,29.81,NNW,338,1.1,3.8,57,0.00,,,0.00,WUHU216HW,2013-03-05 19:16:00,
2013-03-05 11:21:00,48.7,34.1,29.81,NNE,23,5.3,6.9,57,0.00,,,0.00,WUHU216HW,2013-03-05 19:21:00,
2013-03-05 11:26:00,48.9,34.3,29.81,NE,45,3.5,6.9,57,0.00,,,0.00,WUHU216HW,2013-03-05 19:26:00,
2013-03-05 11:31:00,49.1,34.0,29.80,NNE,23,4.2,4.2,56,0.00,,,0.00,WUHU216HW,2013-03-05 19:31:00,
2013-03-05 11:36:00,49.2,33.7,29.80,NNE,23,2.5,6.0,55,0.00,,,0.00,WUHU216HW,2013-03-05 19:36:00,
2013-03-05 11:41:00,49.6,34.5,29.80,East,90,2.0,6.0,56,0.00,,,0.00,WUHU216HW,2013-03-05 19:41:00,
2013-03-05 11:46:00,49.8,34.2,29.80,NNE,23,6.0,6.4,55,0.00,,,0.00,WUHU216HW,2013-03-05 19:46:00,
2013-03-05 11:51:00,50.1,34.5,29.80,NE,45,5.8,6.4,55,0.00,,,0.00,WUHU216HW,2013-03-05 19:51:00,
2013-03-05 11:56:00,50.5,34.4,29.79,NNE,23,0.0,5.8,54,0.00,,,0.00,WUHU216HW,2013-03-05 19:56:00,
2013-03-05 12:01:00,50.7,35.0,29.79,SSW,203,0.0,5.8,55,0.00,,,0.00,WUHU216HW,2013-03-05 20:01:00,
2013-03-05 12:06:00,51.2,35.1,29.79,NE,38,2.3,3.8,54,0.00,,,0.00,WUHU216HW,2013-03-05 20:06:00,
2013-03-05 12:11:00,51.6,35.4,29.79,ENE,68,2.2,3.8,54,0.00,,,0.00,WUHU216HW,2013-03-05 20:11:00,
2013-03-05 12:16:00,51.6,35.4,29.79,NE,45,1.1,7.3,54,0.00,,,0.00,WUHU216HW,2013-03-05 20:16:00,
2013-03-05 12:21:00,51.9,35.3,29.78,NE,45,5.1,7.3,53,0.00,,,0.00,WUHU216HW,2013-03-05 20:21:00,
2013-03-05 12:26:00,51.9,34.8,29.78,NE,45,2.0,5.1,52,0.00,,,0.00,WUHU216HW,2013-03-05 20:26:00,
2013-03-05 12:31:00,52.3,35.6,29.77,SSW,203,0.0,5.1,53,0.00,,,0.00,WUHU216HW,2013-03-05 20:31:00,
2013-03-05 12:36:00,52.5,35.8,29.77,SSW,203,1.5,3.8,53,0.00,,,0.00,WUHU216HW,2013-03-05 20:36:00,
2013-03-05 12:41:00,52.8,35.6,29.77,ENE,58,2.1,3.8,52,0.00,,,0.00,WUHU216HW,2013-03-05 20:41:00,
2013-03-05 12:46:00,53.2,36.0,29.77,ENE,68,1.7,2.4,52,0.00,,,0.00,WUHU216HW,2013-03-05 20:46:00,
2013-03-05 12:51:00,53.7,36.5,29.76,ESE,107,1.1,2.0,52,0.00,,,0.00,WUHU216HW,2013-03-05 20:51:00,
2013-03-05 12:56:00,53.9,36.6,29.76,ENE,68,3.1,3.1,52,0.00,,,0.00,WUHU216HW,2013-03-05 20:56:00,
2013-03-05 13:01:00,54.1,36.8,29.76,ENE,68,1.7,3.1,52,0.00,,,0.00,WUHU216HW,2013-03-05 21:01:00,
2013-03-05 13:06:00,54.5,36.6,29.76,ENE,67,1.1,1.7,51,0.00,,,0.00,WUHU216HW,2013-03-05 21:06:00,
2013-03-05 13:11:00,54.5,36.6,29.76,East,90,3.3,3.3,51,0.00,,,0.00,WUHU216HW,2013-03-05 21:11:00,
2013-03-05 13:16:00,54.5,36.6,29.76,East,90,0.8,3.3,51,0.00,,,0.00,WUHU216HW,2013-03-05 21:16:00,
2013-03-05 13:21:00,54.5,36.2,29.75,NNE,23,0.0,2.0,50,0.00,,,0.00,WUHU216HW,2013-03-05 21:21:00,
2013-03-05 13:26:00,54.3,36.5,29.75,East,90,0.0,0.8,51,0.00,,,0.00,WUHU216HW,2013-03-05 21:26:00,
2013-03-05 13:31:00,54.5,36.6,29.75,SE,135,1.5,1.5,51,0.00,,,0.00,WUHU216HW,2013-03-05 21:31:00,
2013-03-05 13:36:00,54.6,36.3,29.75,NNE,32,5.2,5.8,50,0.00,,,0.00,WUHU216HW,2013-03-05 21:36:00,
2013-03-05 13:41:00,54.8,36.5,29.75,NNW,338,0.0,5.8,50,0.00,,,0.00,WUHU216HW,2013-03-05 21:41:00,
2013-03-05 13:46:00,55.0,36.1,29.75,ENE,68,0.0,4.6,49,0.00,,,0.00,WUHU216HW,2013-03-05 21:46:00,
2013-03-05 13:51:00,55.2,36.3,29.75,SE,135,0.0,0.0,49,0.00,,,0.00,WUHU216HW,2013-03-05 21:51:00,
2013-03-05 13:56:00,55.2,36.3,29.75,SSE,158,1.1,1.1,49,0.00,,,0.00,WUHU216HW,2013-03-05 21:56:00,
2013-03-05 14:01:00,55.2,36.3,29.74,SSE,158,0.0,1.1,49,0.00,,,0.00,WUHU216HW,2013-03-05 22:01:00,
2013-03-05 14:06:00,55.4,37.0,29.75,North,0,3.5,3.5,50,0.00,,,0.00,WUHU216HW,2013-03-05 22:06:00,
2013-03-05 14:11:00,55.5,36.6,29.74,NE,45,2.9,3.5,49,0.00,,,0.00,WUHU216HW,2013-03-05 22:11:00,
2013-03-05 14:16:00,55.5,36.0,29.74,ESE,113,0.6,3.5,48,0.00,,,0.00,WUHU216HW,2013-03-05 22:16:00,
2013-03-05 14:21:00,55.5,36.0,29.75,North,0,0.0,2.9,48,0.00,,,0.00,WUHU216HW,2013-03-05 22:21:00,
2013-03-05 14:26:00,55.4,35.3,29.74,East,81,1.0,1.7,47,0.00,,,0.00,WUHU216HW,2013-03-05 22:26:00,
2013-03-05 14:31:00,55.2,34.6,29.74,ENE,68,3.1,3.3,46,0.00,,,0.00,WUHU216HW,2013-03-05 22:31:00,
2013-03-05 14:36:00,55.2,34.6,29.74,NNE,23,3.5,3.5,46,0.00,,,0.00,WUHU216HW,2013-03-05 22:36:00,
2013-03-05 14:41:00,55.2,35.2,29.74,NE,45,0.0,3.5,47,0.00,,,0.00,WUHU216HW,2013-03-05 22:41:00,
2013-03-05 14:46:00,55.0,35.0,29.74,North,0,0.0,3.5,47,0.00,,,0.00,WUHU216HW,2013-03-05 22:46:00,
2013-03-05 14:51:00,54.6,35.2,29.74,ENE,68,3.1,3.5,48,0.00,,,0.00,WUHU216HW,2013-03-05 22:51:00,
2013-03-05 14:56:00,54.5,34.5,29.74,ENE,68,0.0,3.1,47,0.00,,,0.00,WUHU216HW,2013-03-05 22:56:00,
2013-03-05 15:01:00,54.5,34.5,29.74,SE,135,0.0,3.1,47,0.00,,,0.00,WUHU216HW,2013-03-05 23:01:00,
2013-03-05 15:06:00,54.6,34.7,29.74,NE,45,4.6,4.6,47,0.00,,,0.00,WUHU216HW,2013-03-05 23:06:00,
2013-03-05 15:11:00,54.5,35.1,29.74,NNE,23,7.8,7.8,48,0.00,,,0.00,WUHU216HW,2013-03-05 23:11:00,
2013-03-05 15:16:00,54.3,34.9,29.74,NE,45,2.2,7.8,48,0.00,,,0.00,WUHU216HW,2013-03-05 23:16:00,
2013-03-05 15:21:00,53.9,34.6,29.74,NE,45,1.3,2.2,48,0.00,,,0.00,WUHU216HW,2013-03-05 23:21:00,
2013-03-05 15:26:00,53.9,35.1,29.74,NNE,23,2.6,2.6,49,0.00,,,0.00,WUHU216HW,2013-03-05 23:26:00,
2013-03-05 15:31:00,53.7,35.0,29.74,NNE,23,2.9,2.9,49,0.00,,,0.00,WUHU216HW,2013-03-05 23:31:00,
2013-03-05 15:36:00,53.4,34.7,29.74,NE,45,3.3,3.3,49,0.00,,,0.00,WUHU216HW,2013-03-05 23:36:00,
2013-03-05 15:41:00,53.2,35.0,29.73,North,0,0.0,3.3,50,0.00,,,0.00,WUHU216HW,2013-03-05 23:41:00,
2013-03-05 15:46:00,53.2,34.5,29.73,ENE,68,2.9,2.9,49,0.00,,,0.00,WUHU216HW,2013-03-05 23:46:00,
2013-03-05 15:51:00,53.0,34.3,29.74,NNW,338,3.5,3.5,49,0.00,,,0.00,WUHU216HW,2013-03-05 23:51:00,
2013-03-05 15:56:00,53.0,34.9,29.74,NE,45,0.0,3.5,50,0.00,,,0.00,WUHU216HW,2013-03-05 23:56:00,
2013-03-05 16:02:00,52.8,35.2,29.74,SSE,158,0.0,3.5,51,0.00,,,0.00,WUHU216HW,2013-03-06 00:02:00,
2013-03-05 16:07:00,52.8,35.2,29.74,NNW,338,0.0,0.0,51,0.00,,,0.00,WUHU216HW,2013-03-06 00:07:00,
2013-03-05 16:11:00,52.8,35.6,29.74,SW,225,0.0,0.0,52,0.00,,,0.00,WUHU216HW,2013-03-06 00:11:00,
2013-03-05 16:17:00,52.7,35.9,29.74,SE,135,0.0,0.0,53,0.00,,,0.00,WUHU216HW,2013-03-06 00:17:00,
2013-03-05 16:21:00,52.5,35.8,29.74,West,270,0.0,0.0,53,0.00,,,0.00,WUHU216HW,2013-03-06 00:21:00,
2013-03-05 16:26:00,52.5,36.2,29.74,West,270,0.0,0.0,54,0.00,,,0.00,WUHU216HW,2013-03-06 00:26:00,
2013-03-05 16:32:00,52.3,36.5,29.74,SSE,158,0.0,0.0,55,0.00,,,0.00,WUHU216HW,2013-03-06 00:32:00,
2013-03-05 16:36:00,52.3,37.0,29.74,SSE,158,1.3,1.3,56,0.00,,,0.00,WUHU216HW,2013-03-06 00:36:00,
2013-03-05 16:42:00,52.1,37.2,29.74,SSE,158,0.0,1.3,57,0.00,,,0.00,WUHU216HW,2013-03-06 00:42:00,
2013-03-05 16:47:00,51.8,37.4,29.74,SSE,158,0.0,1.3,58,0.00,,,0.00,WUHU216HW,2013-03-06 00:47:00,
2013-03-05 16:52:00,51.6,37.6,29.74,SSE,158,0.0,0.0,59,0.00,,,0.00,WUHU216HW,2013-03-06 00:52:00,
2013-03-05 16:57:00,51.4,37.9,29.74,ENE,68,0.0,0.0,60,0.00,,,0.00,WUHU216HW,2013-03-06 00:57:00,
2013-03-05 17:02:00,51.0,37.6,29.75,ENE,68,0.0,0.0,60,0.00,,,0.00,WUHU216HW,2013-03-06 01:02:00,
2013-03-05 17:07:00,50.7,37.7,29.75,NNE,23,0.0,0.0,61,0.00,,,0.00,WUHU216HW,2013-03-06 01:07:00,
2013-03-05 17:12:00,50.3,37.7,29.75,SW,225,0.6,0.6,62,0.00,,,0.00,WUHU216HW,2013-03-06 01:12:00,
2013-03-05 17:17:00,50.1,38.0,29.75,SW,225,0.0,0.6,63,0.00,,,0.00,WUHU216HW,2013-03-06 01:17:00,
2013-03-05 17:22:00,49.8,38.0,29.75,NE,45,0.0,0.0,64,0.00,,,0.00,WUHU216HW,2013-03-06 01:22:00,
2013-03-05 17:27:00,49.6,37.9,29.75,SE,135,0.0,0.0,64,0.00,,,0.00,WUHU216HW,2013-03-06 01:27:00,
2013-03-05 17:32:00,49.2,37.9,29.75,SE,135,0.0,0.0,65,0.00,,,0.00,WUHU216HW,2013-03-06 01:32:00,
2013-03-05 17:37:00,49.2,37.9,29.75,NE,45,1.3,1.3,65,0.00,,,0.00,WUHU216HW,2013-03-06 01:37:00,
2013-03-05 17:42:00,49.1,38.1,29.76,NE,45,0.0,1.3,66,0.00,,,0.00,WUHU216HW,2013-03-06 01:42:00,
2013-03-05 17:47:00,48.9,38.2,29.76,NE,45,0.0,1.3,67,0.00,,,0.00,WUHU216HW,2013-03-06 01:47:00,
2013-03-05 17:52:00,48.5,38.0,29.76,ENE,68,0.0,0.0,67,0.00,,,0.00,WUHU216HW,2013-03-06 01:52:00,
2013-03-05 17:57:00,48.3,37.8,29.76,South,180,0.0,0.0,67,0.00,,,0.00,WUHU216HW,2013-03-06 01:57:00,
2013-03-05 18:02:00,48.2,37.7,29.76,South,180,0.0,0.0,67,0.00,,,0.00,WUHU216HW,2013-03-06 02:02:00,
2013-03-05 18:07:00,48.0,37.9,29.76,SW,225,2.9,2.9,68,0.00,,,0.00,WUHU216HW,2013-03-06 02:07:00,
2013-03-05 18:12:00,48.0,37.9,29.76,SSW,203,0.0,2.9,68,0.00,,,0.00,WUHU216HW,2013-03-06 02:12:00,
2013-03-05 18:17:00,47.6,38.1,29.76,South,180,0.0,2.9,69,0.00,,,0.00,WUHU216HW,2013-03-06 02:17:00,
2013-03-05 18:22:00,47.4,38.1,29.76,NE,45,0.0,0.0,70,0.00,,,0.00,WUHU216HW,2013-03-06 02:22:00,
2013-03-05 18:27:00,47.4,38.1,29.76,ENE,68,0.0,0.0,70,0.00,,,0.00,WUHU216HW,2013-03-06 02:27:00,
2013-03-05 18:32:00,47.3,38.0,29.76,SE,135,0.0,0.0,70,0.00,,,0.00,WUHU216HW,2013-03-06 02:32:00,
2013-03-05 18:37:00,47.1,37.8,29.76,NNE,23,0.0,0.0,70,0.00,,,0.00,WUHU216HW,2013-03-06 02:37:00,
2013-03-05 18:42:00,46.9,37.7,29.76,NNE,23,0.0,0.6,70,0.00,,,0.00,WUHU216HW,2013-03-06 02:42:00,
2013-03-05 18:47:00,46.5,37.7,29.76,ENE,68,0.0,0.6,71,0.00,,,0.00,WUHU216HW,2013-03-06 02:47:00,
2013-03-05 18:52:00,46.5,37.7,29.76,NE,45,0.0,0.0,71,0.00,,,0.00,WUHU216HW,2013-03-06 02:52:00,
2013-03-05 18:57:00,46.2,37.3,29.76,NE,45,0.0,0.0,71,0.00,,,0.00,WUHU216HW,2013-03-06 02:57:00,
2013-03-05 19:02:00,46.2,37.3,29.75,SE,135,0.0,0.0,71,0.00,,,0.00,WUHU216HW,2013-03-06 03:02:00,
2013-03-05 19:07:00,46.0,37.2,29.75,SE,135,0.0,0.0,71,0.00,,,0.00,WUHU216HW,2013-03-06 03:07:00,
2013-03-05 19:12:00,46.0,37.5,29.76,NE,45,0.0,0.0,72,0.00,,,0.00,WUHU216HW,2013-03-06 03:12:00,
2013-03-05 19:17:00,46.2,37.8,29.75,NE,45,0.0,0.0,73,0.00,,,0.00,WUHU216HW,2013-03-06 03:17:00,
2013-03-05 19:22:00,46.2,38.0,29.76,NE,45,1.1,1.1,73,0.00,,,0.00,WUHU216HW,2013-03-06 03:22:00,
2013-03-05 19:27:00,46.2,38.0,29.75,ESE,113,0.0,1.1,73,0.00,,,0.00,WUHU216HW,2013-03-06 03:27:00,
2013-03-05 19:32:00,46.5,38.4,29.75,NE,45,0.0,0.0,73,0.00,,,0.00,WUHU216HW,2013-03-06 03:32:00,
2013-03-05 19:37:00,46.7,38.5,29.75,ENE,68,0.0,0.0,73,0.00,,,0.00,WUHU216HW,2013-03-06 03:37:00,
2013-03-05 19:42:00,46.7,38.5,29.75,NE,45,0.0,0.0,73,0.00,,,0.00,WUHU216HW,2013-03-06 03:42:00,
2013-03-05 19:47:00,46.7,38.5,29.75,WNW,293,0.0,0.0,73,0.00,,,0.00,WUHU216HW,2013-03-06 03:47:00,
2013-03-05 19:52:00,46.7,38.5,29.75,WNW,293,0.0,0.0,73,0.00,,,0.00,WUHU216HW,2013-03-06 03:52:00,
2013-03-05 19:57:00,46.9,38.7,29.75,WNW,293,0.0,0.0,73,0.00,,,0.00,WUHU216HW,2013-03-06 03:57:00,
2013-03-05 20:02:00,46.9,38.7,29.75,West,270,0.0,0.0,73,0.00,,,0.00,WUHU216HW,2013-03-06 04:02:00,
2013-03-05 20:07:00,46.9,38.7,29.74,West,270,0.0,0.0,73,0.00,,,0.00,WUHU216HW,2013-03-06 04:07:00,
2013-03-05 20:12:00,46.9,38.7,29.74,SW,225,0.0,0.0,73,0.00,,,0.00,WUHU216HW,2013-03-06 04:12:00,
2013-03-05 20:17:00,46.7,38.5,29.74,North,0,0.0,0.0,73,0.00,,,0.00,WUHU216HW,2013-03-06 04:17:00,
2013-03-05 20:22:00,46.5,38.4,29.75,North,0,0.0,0.0,73,0.00,,,0.00,WUHU216HW,2013-03-06 04:22:00,
2013-03-05 20:27:00,46.2,38.0,29.75,NE,45,0.0,0.8,73,0.00,,,0.00,WUHU216HW,2013-03-06 04:27:00,
2013-03-05 20:32:00,46.2,38.4,29.75,ENE,68,0.0,0.8,74,0.00,,,0.00,WUHU216HW,2013-03-06 04:32:00,
2013-03-05 20:37:00,46.2,38.4,29.75,SSE,158,0.0,0.0,74,0.00,,,0.00,WUHU216HW,2013-03-06 04:37:00,
2013-03-05 20:42:00,46.2,38.4,29.74,SSE,158,0.0,0.0,74,0.00,,,0.00,WUHU216HW,2013-03-06 04:42:00,
2013-03-05 20:47:00,46.2,38.4,29.74,NE,45,0.8,0.8,74,0.00,,,0.00,WUHU216HW,2013-03-06 04:47:00,
2013-03-05 20:52:00,46.2,38.4,29.74,NE,45,0.0,0.8,74,0.00,,,0.00,WUHU216HW,2013-03-06 04:52:00,
2013-03-05 20:57:00,46.2,38.4,29.74,NE,45,0.0,0.8,74,0.00,,,0.00,WUHU216HW,2013-03-06 04:57:00,
2013-03-05 21:00:00,46.0,38.2,29.74,NE,45,0.0,0.0,74,0.00,,,0.00,WUHU216HW,2013-03-06 05:00:00,
2013-03-05 21:05:00,46.0,38.2,29.74,ENE,68,0.0,0.0,74,0.00,,,0.00,WUHU216HW,2013-03-06 05:05:00,
2013-03-05 21:10:00,46.0,38.2,29.74,ENE,68,0.0,0.0,74,0.00,,,0.00,WUHU216HW,2013-03-06 05:10:00,
2013-03-05 21:15:00,46.0,38.2,29.74,East,90,0.0,0.0,74,0.00,,,0.00,WUHU216HW,2013-03-06 05:15:00,
2013-03-05 21:20:00,46.0,38.2,29.74,NE,45,0.0,0.0,74,0.00,,,0.00,WUHU216HW,2013-03-06 05:20:00,
2013-03-05 21:25:00,45.6,37.8,29.75,NE,45,0.0,0.0,74,0.00,,,0.00,WUHU216HW,2013-03-06 05:25:00,
2013-03-05 21:30:00,45.8,38.3,29.75,NE,45,0.0,0.0,75,0.00,,,0.00,WUHU216HW,2013-03-06 05:30:00,
2013-03-05 21:35:00,45.8,38.3,29.75,NNE,23,0.0,0.0,75,0.00,,,0.00,WUHU216HW,2013-03-06 05:35:00,
2013-03-05 21:40:00,45.6,38.2,29.75,NNE,23,0.0,0.0,75,0.00,,,0.00,WUHU216HW,2013-03-06 05:40:00,
2013-03-05 21:45:00,45.6,38.2,29.75,SSE,158,0.0,0.0,75,0.00,,,0.00,WUHU216HW,2013-03-06 05:45:00,
2013-03-05 21:50:00,45.6,38.2,29.75,NE,45,0.0,0.0,75,0.00,,,0.00,WUHU216HW,2013-03-06 05:50:00,
2013-03-05 21:55:00,45.5,38.0,29.75,NE,45,0.0,0.0,75,0.00,,,0.00,WUHU216HW,2013-03-06 05:55:00,
2013-03-05 22:00:00,45.5,38.0,29.75,NE,45,2.0,2.0,75,0.00,,,0.00,WUHU216HW,2013-03-06 06:00:00,
2013-03-05 22:05:00,45.3,37.8,29.75,NE,45,0.0,2.0,75,0.00,,,0.00,WUHU216HW,2013-03-06 06:05:00,
2013-03-05 22:10:00,45.1,37.6,29.75,NE,45,0.0,2.0,75,0.00,,,0.00,WUHU216HW,2013-03-06 06:10:00,
2013-03-05 22:15:00,44.6,37.1,29.75,SE,135,0.0,0.0,75,0.00,,,0.00,WUHU216HW,2013-03-06 06:15:00,
2013-03-05 22:20:00,44.4,36.9,29.75,SE,135,0.0,0.0,75,0.00,,,0.00,WUHU216HW,2013-03-06 06:20:00,
2013-03-05 22:25:00,44.0,36.9,29.74,NE,45,0.0,0.0,76,0.00,,,0.00,WUHU216HW,2013-03-06 06:25:00,
2013-03-05 22:30:00,43.5,36.4,29.74,SE,135,0.0,0.0,76,0.00,,,0.00,WUHU216HW,2013-03-06 06:30:00,
2013-03-05 22:35:00,43.3,36.2,29.74,SE,135,0.0,0.0,76,0.00,,,0.00,WUHU216HW,2013-03-06 06:35:00,
2013-03-05 22:40:00,42.9,36.2,29.74,ENE,68,0.0,0.0,77,0.00,,,0.00,WUHU216HW,2013-03-06 06:40:00,
2013-03-05 22:45:00,42.8,36.0,29.74,NE,45,0.0,0.0,77,0.00,,,0.00,WUHU216HW,2013-03-06 06:45:00,
2013-03-05 22:50:00,42.6,36.2,29.74,NE,45,0.0,0.0,78,0.00,,,0.00,WUHU216HW,2013-03-06 06:50:00,
2013-03-05 22:55:00,42.4,36.0,29.74,NE,45,0.0,0.0,78,0.00,,,0.00,WUHU216HW,2013-03-06 06:55:00,
2013-03-05 23:00:00,42.4,36.0,29.73,East,90,0.0,0.0,78,0.00,,,0.00,WUHU216HW,2013-03-06 07:00:00,
2013-03-05 23:05:00,42.0,35.9,29.73,NE,45,0.0,0.0,79,0.00,,,0.00,WUHU216HW,2013-03-06 07:05:00,
2013-03-05 23:10:00,41.7,35.6,29.73,SE,135,0.0,0.0,79,0.00,,,0.00,WUHU216HW,2013-03-06 07:10:00,
2013-03-05 23:15:00,41.7,35.6,29.73,SE,135,0.0,0.0,79,0.00,,,0.00,WUHU216HW,2013-03-06 07:15:00,
2013-03-05 23:20:00,41.5,35.4,29.73,East,90,0.0,0.0,79,0.00,,,0.00,WUHU216HW,2013-03-06 07:20:00,
2013-03-05 23:25:00,41.1,35.0,29.72,NE,45,0.0,0.0,79,0.00,,,0.00,WUHU216HW,2013-03-06 07:25:00,
2013-03-05 23:30:00,41.1,35.0,29.72,SE,135,0.0,0.0,79,0.00,,,0.00,WUHU216HW,2013-03-06 07:30:00,
2013-03-05 23:35:00,41.0,34.7,29.72,SE,135,0.0,0.0,79,0.00,,,0.00,WUHU216HW,2013-03-06 07:35:00,
2013-03-05 23:40:00,40.8,34.7,29.72,ENE,68,0.0,0.0,79,0.00,,,0.00,WUHU216HW,2013-03-06 07:40:00,
2013-03-05 23:45:00,40.4,34.7,29.71,SE,135,0.0,0.0,80,0.00,,,0.00,WUHU216HW,2013-03-06 07:45:00,
2013-03-05 23:50:00,40.2,34.5,29.71,South,180,0.0,0.0,80,0.00,,,0.00,WUHU216HW,2013-03-06 07:50:00,
2013-03-05 23:55:00,39.9,34.2,29.71,South,180,0.0,0.0,80,0.00,,,0.00,WUHU216HW,2013-03-06 07:55:00,